Location: Home
(42.5358°N, 72.7383°W)
Time: 11:19:50
(UTC-05:00)

Courier 1B - Pass Details

Date: 09 December 2021
Orbit: 962 x 1209 km, 28.3° (Epoch: 23 January)

Event Time Altitude Azimuth Distance (km) Brightness Sun altitude
Rises 18:53:34 0° 256° (WSW) 4,020 12.0 -27.8°
Reaches altitude 10° 18:57:59 10° 233° (SW) 3,007 10.8 -28.7°
Maximum altitude 19:01:36 14° 204° (SSW) 2,649 10.0 -29.3°
Drops below altitude 10° 19:05:07 10° 174° (S) 2,911 9.9 -30.0°
Enters shadow 19:06:15 - 166° (SSE) 3,109 10.0 -30.2°
